Riverside March, CA

2:18 AM PDT on July 22, 2017 (GMT -0700)
March Air Reserve Base

Weather History for KRIV - October, 2012

Change the Weather History Date:

Tuesday, October 30, 2012

  Actual Average Record
Temperature  
Mean Temperature 63 °F -  
Max Temperature 85 °F 72 °F 90 °F (2011)
Min Temperature 42 °F 46 °F 39 °F (2011)
Degree Days  
Heating Degree Days 2    
Growing Degree Days 13 (Base 50)    
Moisture  
Dew Point 36 °F    
Average Humidity 45    
Maximum Humidity 71    
Minimum Humidity 12    
Precipitation  
Precipitation 0.00 in - - ()
Sea Level Pressure  
Sea Level Pressure 30.05 in    
Wind  
Wind Speed 2 mph (WNW)    
Max Wind Speed 13 mph    
Max Gust Speed -    
Visibility 10 miles    
Events      
Averages and records for this station are not official NWS values.
T = Trace of Precipitation, MM = Missing Value Source: NWS Daily Summary

Daily Weather History Graph

Daily Weather History Graph

Search for Another Location

Airport or City:

Trip Planner

Search our weather history database for the weather conditions in past years. The results will help you decide how hot, cold, wet, or windy it might be!

Date:

Astronomy

Oct. 30, 2012 Rise Set
Actual Time 7:07 AM PDT 5:57 PM PDT
Civil Twilight 6:41 AM PDT 6:23 PM PDT
Nautical Twilight 6:11 AM PDT 6:52 PM PDT
Astronomical Twilight 5:42 AM PDT 7:22 PM PDT
Moon 6:34 PM PDT (10/30) 7:54 AM PDT (10/30)
Length of Visible Light 11h 42m
Length of Day
10h 50m
Full, 99% of the Moon is Illuminated
Oct 30
Full
Nov 6
Last Quarter
Nov 13
New
Nov 20
First Quarter
Nov 28
Full

Hourly Weather History & Observations

Time (PDT) Temp. Dew Point Humidity Pressure Visibility Wind Dir Wind Speed Gust Speed Precip Events Conditions
12:55 AM 47.7 °F 31.5 °F 53% 30.07 in 10.0 mi Calm Calm - N/A   Clear
1:55 AM 47.1 °F 31.6 °F 55% 30.08 in 10.0 mi Calm Calm - N/A   Clear
2:55 AM 46.8 °F 34.3 °F 62% 30.07 in 10.0 mi Calm Calm - N/A   Clear
3:55 AM 45.5 °F 34.7 °F 66% 30.07 in 10.0 mi Calm Calm - N/A   Clear
4:55 AM 44.2 °F 34.0 °F 67% 30.07 in 10.0 mi Calm Calm - N/A   Clear
5:55 AM 44.4 °F 35.4 °F 71% 30.08 in 10.0 mi Calm Calm - N/A   Clear
6:55 AM 42.8 °F 32.2 °F 66% 30.09 in 10.0 mi Calm Calm - N/A   Clear
7:55 AM 48.2 °F 36.9 °F 65% 30.09 in 10.0 mi Calm Calm - N/A   Clear
8:55 AM 56.8 °F 37.8 °F 49% 30.09 in 10.0 mi Calm Calm - N/A   Clear
9:55 AM 66.0 °F 36.5 °F 34% 30.09 in 10.0 mi Calm Calm - N/A   Clear
10:55 AM 73.9 °F 33.3 °F 23% 30.08 in 10.0 mi Calm Calm - N/A   Clear
11:55 AM 80.8 °F 30.2 °F 16% 30.06 in 10.0 mi Calm Calm - N/A   Clear
12:55 PM 83.7 °F 26.4 °F 12% 30.03 in 10.0 mi Variable 4.6 mph - N/A   Clear
1:55 PM 84.6 °F 25.5 °F 12% 30.00 in 10.0 mi NW 5.8 mph - N/A   Clear
2:55 PM 84.7 °F 28.9 °F 13% 29.98 in 10.0 mi WNW 9.2 mph - N/A   Clear
3:55 PM 82.8 °F 31.8 °F 16% 29.99 in 10.0 mi NW 11.5 mph - N/A   Clear
4:55 PM 78.6 °F 39.2 °F 24% 29.99 in 10.0 mi WNW 12.7 mph - N/A   Clear
5:55 PM 71.6 °F 44.1 °F 37% 30.00 in 10.0 mi WNW 5.8 mph - N/A   Clear
6:55 PM 65.5 °F 45.7 °F 49% 30.02 in 10.0 mi West 5.8 mph - N/A   Clear
7:55 PM 60.3 °F 42.8 °F 53% 30.03 in 10.0 mi Calm Calm - N/A   Clear
8:55 PM 59.5 °F 45.0 °F 59% 30.04 in 10.0 mi Calm Calm - N/A   Clear
9:55 PM 54.5 °F 40.1 °F 58% 30.04 in 10.0 mi West 3.5 mph - N/A   Clear
10:55 PM 51.1 °F 37.8 °F 60% 30.04 in 10.0 mi WNW 4.6 mph - N/A   Clear
11:55 PM 50.4 °F 38.1 °F 63% 30.03 in 10.0 mi Calm Calm - N/A   Clear